Flag for U.S.A. Weather past 2 weeks in Allentown, Pennsylvania, U.S.A.

Now
30 °F

Clear.


Feels Like: 22 °F
Forecast: 30 / 51 °F
Wind: 9 mph from East

Location: Lehigh Valley International Airport


UV Index: 3 (Moderate)

Visibility: 10 mi


Pressure: 30.62 "Hg

Humidity: 61%

Dew point: 18 °F

Location of AllentownLocation

Historic Weather in Allentown

°F

Allentown temperature yesterday

Maximum temperature yesterday: 46 °F (at 5:51 PM)
Minimum temperature yesterday: 27 °F (at 5:51 AM)
Average temperature yesterday: 36 °F

Past Weeks' High & Low Weather Summary

 TemperatureHumidityPressure
High81 °F (Apr 13, 2:51 PM)100% (Apr 8, 7:04 AM)30.61 "Hg (Apr 8, 7:04 AM)
Low27 °F (Apr 16, 5:51 AM)18% (Apr 3, 4:51 PM)29.45 "Hg (Apr 8, 9:03 AM)
Average51 °F62%29.99 "Hg
* Reported Apr 2 4:51 AM — Apr 17 4:51 AM, Allentown, Weather by CustomWeather, © 2014

Note: Actual official high and low records may vary slightly from our data, if they occured in-between our weather recording intervals... More about our weather records

Advertising

Historic Weather Conditions — Data for Previous 24 hours

 ConditionsComfort  
Time TempWeatherWind HumidityBarometerVisibility
4:51 AM
Apr 17
29 °FClear.7 mph64%30.61 "Hg10 mi
3:51 AM29 °FClear.6 mph61%30.61 "Hg10 mi
2:51 AM30 °FClear.6 mph59%30.61 "Hg10 mi
1:51 AM31 °FClear.5 mph57%30.60 "Hg10 mi
12:51 AM33 °FClear.5 mph58%30.59 "Hg10 mi
11:51 PM
Apr 16
35 °FClear.No wind46%30.58 "Hg10 mi
10:51 PM35 °FClear.No wind52%30.55 "Hg10 mi
9:51 PM36 °FClear.6 mph50%30.54 "Hg10 mi
8:51 PM38 °FClear.5 mph48%30.52 "Hg10 mi
7:51 PM40 °FSunny.6 mph41%30.48 "Hg10 mi
6:51 PM44 °FSunny.10 mph35%30.46 "Hg10 mi
5:51 PM46 °FSunny.7 mph33%30.45 "Hg10 mi
4:51 PM45 °FSunny.13 mph33%30.45 "Hg10 mi
3:51 PM45 °FSunny.14 mph34%30.45 "Hg10 mi
2:51 PM43 °FSunny.14 mph37%30.46 "Hg10 mi
1:51 PM42 °FSunny.13 mph39%30.46 "Hg10 mi
12:51 PM41 °FSunny.13 mph43%30.45 "Hg10 mi
11:51 AM38 °FSunny.15 mph46%30.44 "Hg10 mi
10:51 AM35 °FSunny.15 mph50%30.42 "Hg10 mi
9:51 AM33 °FSunny.17 mph49%30.37 "Hg10 mi
8:51 AM30 °FSunny.16 mph54%30.34 "Hg10 mi
7:51 AM28 °FSunny.18 mph53%30.31 "Hg10 mi
6:51 AM27 °FClear.9 mph53%30.27 "Hg10 mi
Weather by CustomWeather, © 2014

See weather overview